Hourly Data Report for October 20, 2013

All times are specified in Local Standard Time (LST). Add 1 hour to adjust for Daylight Saving Time where and when it is observed.

CHARLOTTETOWN A
PRINCE EDWARD ISLAND

46°17'21.000" N
63°07'09.000" W
48.50 m
8300301
71706
YYG

Download Data

Hourly Data (October 2013)
Hourly Data Report for October 20, 2013
Temp Definition
°C
Dew Point Temp Definition
°C
Rel Hum Definition
%
Wind Dir Definition
10's deg

Wind Spd Definition
km/h
Visibility Definition
km
Stn Press Definition
kPa
Hmdx Definition


Wind Chill Definition


Weather Definition


TIME
00:00 Legend Double Dagger 7.5 6.8 95 14 9 24.1 100.48     LegendNANA
01:00 Legend Double Dagger 6.9 6.0 94 11 6 24.1 100.46     LegendNANA
02:00 Legend Double Dagger 8.1 7.8 98 15 5 24.1 100.44     Mostly Cloudy
03:00 Legend Double Dagger 8.1 7.8 98 17 3 24.1 100.41     LegendNANA
04:00 Legend Double Dagger 8.4 8.1 98 14 8 24.1 100.43     LegendNANA
05:00 Legend Double Dagger 8.9 8.5 97 12 9 24.1 100.36     Cloudy
06:00 Legend Double Dagger 8.6 8.2 97 12 9 24.1 100.31     LegendNANA
07:00 Legend Double Dagger 8.8 8.4 97 16 4 24.1 100.28     LegendNANA
08:00 Legend Double Dagger 9.8 9.0 95 12 6 24.1 100.29     Mainly Clear
09:00 Legend Double Dagger 11.4 8.8 84 14 15 24.1 100.25     LegendNANA
10:00 Legend Double Dagger 13.6 8.1 69 16 22 24.1 100.22     LegendNANA
11:00 Legend Double Dagger 12.8 8.1 73 15 20 24.1 100.17     Mostly Cloudy
12:00 Legend Double Dagger 13.6 8.5 71 18 15 24.1 100.09     LegendNANA
13:00 Legend Double Dagger 13.6 8.3 70 15 23 24.1 100.01     LegendNANA
14:00 Legend Double Dagger 12.9 9.2 78 15 17 24.1 99.92     Rain Showers
15:00 Legend Double Dagger 11.6 9.9 89 18 10 6.4 99.88     Rain Showers,Fog
16:00 Legend Double Dagger 11.2 10.6 96 16 6 6.4 99.86     Rain Showers,Fog
17:00 Legend Double Dagger 11.3 10.7 96 13 8 19.3 99.76     Cloudy
18:00 Legend Double Dagger 12.3 10.9 91 23 9 24.1 99.74     LegendNANA
19:00 Legend Double Dagger 12.2 10.6 90 24 16 24.1 99.78     LegendNANA
20:00 Legend Double Dagger 11.1 9.4 89 26 25 24.1 99.87     Mostly Cloudy
21:00 Legend Double Dagger 8.9 6.4 84 26 14 24.1 99.97     LegendNANA
22:00 Legend Double Dagger 7.8 6.0 88 25 11 24.1 100.01     LegendNANA
23:00 Legend Double Dagger 7.2 6.0 92 26 10 24.1 100.04     Mainly Clear

Notes on Data Quality.

Legend

  • E = Estimated
  • M = Missing
  • NA = Not Available
  • ‡ = Partner data that is not subject to review by the National Climate Archives
Date modified: